Regional Weather Roundup
Issued by NWS

Home | Current Version | Previous Version | Graphics & Text | Print | Product List | Glossary On
Versions: 1 2 3 4 5 6 7 8 9 10 11 12 13 14 15 16 17 18 19 20 21 22 23 24 25 26 27 28 29 30 31 32 33 34 35 36 37 38 39 40 41 42 43 44 45 46 47 48 49 50
000
ASUS45 KABQ 281101
RWRNM
WEATHER ROUNDUP FOR NEW MEXICO
NATIONAL WEATHER SERVICE ALBUQUERQUE NM
500 AM MDT THU AUG 28 2014

NOTE: "FAIR" MEANS FEW OR NO CLOUDS BELOW 12,000 FEET AGL WITH NO
       SIGNIFICANT WEATHER OR OBSTRUCTIONS TO VISION.

      THIS PRODUCT IS RELEASED AS TWO VERSIONS.  ONE VERSION NEAR
      THE TOP OF THE HOUR CONTAINING PRELIMINARY DATA FROM ALBUQUERQUE
      AND OTHER STATIONS.  A FINAL VERSION WITH ADDITIONAL DATA IS
      ISSUED ABOUT 10 MINUTES AFTER THE HOUR.

NMZ501-503-504-510>518-281200-
NORTHWEST PLATEAU/NORTHCENTRAL MOUNTAINS

CITY           SKY/WX    TMP DP  RH WIND       PRES   REMARKS
FARMINGTON     CLEAR     49  46  90 N3        30.25S
LOS ALAMOS     CLEAR     54  38  55 CALM      30.31S
SANTA FE       CLEAR     51  42  71 N9        30.25S
ANGEL FIRE     FAIR      39  35  84 CALM      30.36S

$$
NMZ402-403-502-505>509-281200-
WESTCENTRAL MOUNTAINS/SOUTHWEST MOUNTAINS

CITY           SKY/WX    TMP DP  RH WIND       PRES   REMARKS
GALLUP         CLEAR     44  36  73 E5        30.31S
SILVER CITY    CLEAR     59  52  77 N7        30.22S

$$
NMZ407-409-411-412-281200-
SOUTHERN DESERTS

CITY           SKY/WX    TMP DP  RH WIND       PRES   REMARKS
LORDSBURG      FAIR      63  54  72 CALM      30.14R
DEMING         CLEAR     62  55  77 CALM      30.13S
LAS CRUCES     CLEAR     64  58  80 N6        30.14S
HOLLOMAN AFB   CLEAR     63  60  88 NW9       30.10S
ALAMOGORDO     CLEAR     61  57  88 SE7       30.12S
T OR C         CLEAR     65  53  65 NW10      30.15S

$$
NMZ519>523-281200-
CENTRAL VALLEYS/CENTRAL HIGHLANDS

CITY           SKY/WX    TMP DP  RH WIND       PRES   REMARKS
ALBUQUERQUE    PTCLDY    63  43  48 N7        30.23R
DOUBLE EAGLE   PTCLDY    54  46  73 NW6       30.25S
CLINES CORNERS CLEAR     54  41  61 NW9       30.27F
BELEN          FAIR      54  47  76 N7        30.21S
SOCORRO        FAIR      61  60  94 NW6       30.18S

$$
NMZ524>526-539-540-281200-
SOUTHCENTRAL MOUNTAINS

CITY           SKY/WX    TMP DP  RH WIND       PRES   REMARKS
RUIDOSO        NOT AVBL

$$
NMZ527>531-281200-
NORTHEAST HIGHLANDS/NORTHEAST PLAINS

CITY           SKY/WX    TMP DP  RH WIND       PRES   REMARKS
LAS VEGAS      CLEAR     51  38  60 NE6       30.25F
RATON          CLEAR     48  39  71 E7        30.19F
CLAYTON        CLEAR     61  48  62 NW17      30.11S

$$
NMZ532>537-281200-
EASTCENTRAL PLAINS

CITY           SKY/WX    TMP DP  RH WIND       PRES   REMARKS
TUCUMCARI      PTCLDY    62  55  77 CALM      30.06F
CANNON AFB     PTCLDY    66  58  74 CALM      30.10S
CLOVIS AIRPORT   N/A     64  55  72 W7        30.11S

$$
NMZ028-029-538-281200-
SOUTHEAST PLAINS

CITY           SKY/WX    TMP DP  RH WIND       PRES   REMARKS
ROSWELL        MOCLDY    67  61  81 N3        30.05S
CARLSBAD       CLEAR     69  62  78 NW8       30.02S


$$


USA.gov is the U.S. government's official web portal to all federal, state and local government web resources and services.